Location: Anjeux
(47.8815°N, 6.2076°E)
Time: 06:04:32
(UTC+00:00)

RS-15 - Visible Passes

Search period start: 05 December 2021 00:00
Search period end: 15 December 2021 00:00
Orbit: 1883 x 2161 km, 64.8° (Epoch: 04 December)

Date Brightness Start Highest point End Pass type
(mag) Time Alt. Az. Time Alt. Az. Time Alt. Az.
05 Dec 8.5 02:07:53 51° ESE 02:07:53 51° ESE 02:19:06 10° NE visible
05 Dec 8.0 04:15:42 43° WSW 04:20:03 63° NW 04:32:12 10° NE visible
05 Dec 8.7 06:24:41 10° WNW 06:35:27 37° N 06:46:35 10° NE visible
06 Dec 8.9 01:33:43 38° E 01:33:43 38° E 01:42:46 10° NE visible
06 Dec 7.9 03:41:30 62° WSW 03:43:45 74° NW 03:56:01 10° NE visible
06 Dec 8.6 05:49:18 15° WNW 05:58:37 39° NNW 06:09:55 10° NE visible
07 Dec 9.3 00:59:27 28° E 00:59:27 28° E 01:06:17 10° NE visible
07 Dec 7.9 03:07:14 85° WSW 03:07:35 87° NW 03:19:50 10° NE visible
07 Dec 8.5 05:15:02 24° WNW 05:21:52 42° NNW 05:33:22 10° NE visible
08 Dec 9.6 00:25:07 19° ENE 00:25:07 19° ENE 00:29:32 10° NE visible
08 Dec 8.1 02:32:54 72° ENE 02:32:54 72° ENE 02:43:41 10° NE visible
08 Dec 8.4 04:40:40 35° WNW 04:45:12 47° NNW 04:56:57 10° NE visible
08 Dec 9.9 23:50:43 13° ENE 23:50:43 13° ENE 23:52:15 10° ENE visible
09 Dec 8.5 01:58:29 53° ENE 01:58:29 53° ENE 02:07:30 10° NE visible
09 Dec 8.1 04:06:16 48° WNW 04:08:39 54° NW 04:20:36 10° NE visible
09 Dec 8.8 06:14:03 11° WNW 06:24:34 35° N 06:35:37 10° ENE visible
10 Dec 8.9 01:24:02 39° ENE 01:24:02 39° ENE 01:31:16 10° NE visible
10 Dec 8.0 03:31:48 62° NW 03:32:13 62° NW 03:44:21 10° NE visible
10 Dec 8.8 05:39:35 18° WNW 05:47:42 36° N 05:58:48 10° NE visible
11 Dec 9.3 00:49:32 28° ENE 00:49:32 28° ENE 00:54:57 10° NE visible
11 Dec 8.1 02:57:17 68° N 02:57:17 68° N 03:08:09 10° NE visible
11 Dec 8.7 05:05:04 26° WNW 05:10:51 38° NNW 05:22:08 10° NE visible
12 Dec 9.6 00:14:59 20° ENE 00:14:59 20° ENE 00:18:30 10° NE visible
12 Dec 8.3 02:22:45 59° NNE 02:22:45 59° NNE 02:31:59 10° NE visible
12 Dec 8.5 04:30:31 35° WNW 04:34:05 42° NNW 04:45:33 10° NE visible
12 Dec 9.9 23:40:24 13° ENE 23:40:24 13° ENE 23:41:47 10° NE visible
13 Dec 8.7 01:48:10 47° NE 01:48:10 47° NE 01:55:50 10° NE visible
13 Dec 8.3 03:55:56 45° NW 03:57:25 46° NNW 04:09:07 10° NE visible
13 Dec 8.9 06:03:42 12° NW 06:13:43 36° N 06:24:48 10° ENE visible
14 Dec 9.0 01:13:33 36° NE 01:13:33 36° NE 01:19:38 10° NE visible
14 Dec 8.3 03:21:19 52° NNW 03:21:19 52° NNW 03:32:46 10° NE visible
14 Dec 8.9 05:29:05 19° NW 05:36:49 35° N 05:47:52 10° ENE visible
